Time,TemperatureF,DewpointF,PressureIn,WindDirection,WindDirectionDegrees,WindSpeedMPH,WindSpeedGustMPH,Humidity,HourlyPrecipIn,Conditions,Clouds,dailyrainin,SoftwareType,DateUTC
2013-07-21 00:00:00,62.1,51.8,30.71,SW,225,0.0,2.0,69,0.00,,,0.00,meteohub,2013-07-21 06:00:00,
2013-07-21 00:05:00,62.1,51.8,30.71,SW,225,0.0,2.0,69,0.00,,,0.00,meteohub,2013-07-21 06:05:00,
2013-07-21 00:11:00,62.2,52.7,30.71,South,180,1.0,2.0,71,0.00,,,0.00,meteohub,2013-07-21 06:11:00,
2013-07-21 00:16:00,62.1,52.5,30.71,SW,225,1.0,2.0,71,0.00,,,0.00,meteohub,2013-07-21 06:16:00,
2013-07-21 00:21:00,62.2,53.1,30.71,NE,45,2.0,2.0,72,0.00,,,0.00,meteohub,2013-07-21 06:21:00,
2013-07-21 00:26:00,62.4,53.2,30.72,West,270,4.0,4.0,72,0.00,,,0.00,meteohub,2013-07-21 06:26:00,
2013-07-21 00:31:00,63.3,53.4,30.72,SW,225,2.0,5.0,70,0.00,,,0.00,meteohub,2013-07-21 06:31:00,
2013-07-21 00:36:00,64.2,53.8,30.72,West,270,3.0,5.0,69,0.00,,,0.00,meteohub,2013-07-21 06:36:00,
2013-07-21 00:41:00,65.5,54.7,30.72,NW,315,2.0,5.0,68,0.00,,,0.00,meteohub,2013-07-21 06:41:00,
2013-07-21 00:46:00,66.6,54.9,30.72,SW,225,2.0,4.0,66,0.00,,,0.00,meteohub,2013-07-21 06:46:00,
2013-07-21 00:51:00,66.9,55.2,30.72,East,90,4.0,4.0,66,0.00,,,0.00,meteohub,2013-07-21 06:51:00,
2013-07-21 00:56:00,67.3,55.6,30.71,South,180,3.0,4.0,66,0.00,,,0.00,meteohub,2013-07-21 06:56:00,
2013-07-21 01:01:00,67.5,55.8,30.71,NE,45,3.0,6.0,66,0.00,,,0.00,meteohub,2013-07-21 07:01:00,
2013-07-21 01:07:00,67.5,55.8,30.71,NW,315,2.0,6.0,66,0.00,,,0.00,meteohub,2013-07-21 07:07:00,
2013-07-21 01:12:00,67.5,55.8,30.71,SE,135,3.0,8.0,66,0.00,,,0.00,meteohub,2013-07-21 07:12:00,
2013-07-21 01:17:00,67.5,55.8,30.71,East,90,4.0,8.0,66,0.00,,,0.00,meteohub,2013-07-21 07:17:00,
2013-07-21 01:22:00,67.5,55.8,30.71,NW,315,6.0,7.0,66,0.00,,,0.00,meteohub,2013-07-21 07:22:00,
2013-07-21 01:27:00,67.5,55.8,30.71,East,90,5.0,8.0,66,0.00,,,0.00,meteohub,2013-07-21 07:27:00,
2013-07-21 01:32:00,67.5,55.8,30.71,SE,135,6.0,8.0,66,0.00,,,0.00,meteohub,2013-07-21 07:32:00,
2013-07-21 01:37:00,67.3,55.6,30.71,SW,225,5.0,8.0,66,0.00,,,0.00,meteohub,2013-07-21 07:37:00,
2013-07-21 01:42:00,67.1,55.4,30.71,SW,225,4.0,8.0,66,0.00,,,0.00,meteohub,2013-07-21 07:42:00,
2013-07-21 01:47:00,67.1,55.4,30.71,NE,45,6.0,7.0,66,0.00,,,0.00,meteohub,2013-07-21 07:47:00,
2013-07-21 01:52:00,66.9,55.2,30.71,South,180,2.0,7.0,66,0.00,,,0.00,meteohub,2013-07-21 07:52:00,
2013-07-21 01:57:00,66.9,55.2,30.71,SSW,203,2.0,7.0,66,0.00,,,0.00,meteohub,2013-07-21 07:57:00,
2013-07-21 02:02:00,66.9,55.2,30.71,West,270,7.0,7.0,66,0.00,,,0.00,meteohub,2013-07-21 08:02:00,
2013-07-21 02:07:00,66.9,55.2,30.71,West,270,7.0,7.0,66,0.00,,,0.00,meteohub,2013-07-21 08:07:00,
2013-07-21 02:12:00,66.6,54.9,30.71,West,270,2.0,7.0,66,0.00,,,0.00,meteohub,2013-07-21 08:12:00,
2013-07-21 02:17:00,65.8,54.5,30.71,NE,45,2.0,7.0,67,0.00,,,0.00,meteohub,2013-07-21 08:17:00,
2013-07-21 02:22:00,65.3,54.5,30.71,SE,135,1.0,7.0,68,0.00,,,0.00,meteohub,2013-07-21 08:22:00,
2013-07-21 02:27:00,64.4,54.0,30.71,East,90,2.0,3.0,69,0.00,,,0.00,meteohub,2013-07-21 08:27:00,
2013-07-21 02:32:00,63.5,54.0,30.71,East,90,1.0,2.0,71,0.00,,,0.00,meteohub,2013-07-21 08:32:00,
2013-07-21 02:37:00,62.8,53.6,30.71,East,90,2.0,2.0,72,0.00,,,0.00,meteohub,2013-07-21 08:37:00,
2013-07-21 02:42:00,62.2,53.8,30.71,SE,135,2.0,2.0,74,0.00,,,0.00,meteohub,2013-07-21 08:42:00,
2013-07-21 02:47:00,61.7,53.2,30.71,East,90,1.0,2.0,74,0.00,,,0.00,meteohub,2013-07-21 08:47:00,
2013-07-21 02:52:00,61.2,53.2,30.71,SE,135,2.0,2.0,75,0.00,,,0.00,meteohub,2013-07-21 08:52:00,
2013-07-21 02:57:00,60.8,53.2,30.71,SE,135,2.0,3.0,76,0.00,,,0.00,meteohub,2013-07-21 08:57:00,
2013-07-21 03:02:00,60.4,53.2,30.71,West,270,0.0,3.0,77,0.00,,,0.00,meteohub,2013-07-21 09:02:00,
2013-07-21 03:07:00,60.3,53.4,30.71,SW,225,2.0,3.0,78,0.00,,,0.00,meteohub,2013-07-21 09:07:00,
2013-07-21 03:12:00,60.1,53.2,30.70,NW,315,0.0,3.0,78,0.00,,,0.00,meteohub,2013-07-21 09:12:00,
2013-07-21 03:17:00,59.9,53.1,30.71,WSW,248,2.0,3.0,78,0.00,,,0.00,meteohub,2013-07-21 09:17:00,
2013-07-21 03:22:00,59.7,53.2,30.71,West,270,2.0,3.0,79,0.00,,,0.00,meteohub,2013-07-21 09:22:00,
2013-07-21 03:27:00,59.9,53.4,30.70,SW,225,1.0,2.0,79,0.00,,,0.00,meteohub,2013-07-21 09:27:00,
2013-07-21 03:32:00,59.5,53.1,30.70,West,270,0.0,2.0,79,0.00,,,0.00,meteohub,2013-07-21 09:32:00,
2013-07-21 03:37:00,59.4,53.2,30.70,NE,45,0.0,2.0,80,0.00,,,0.00,meteohub,2013-07-21 09:37:00,
2013-07-21 03:42:00,59.0,52.9,30.70,SE,135,0.0,1.0,80,0.00,,,0.00,meteohub,2013-07-21 09:42:00,
2013-07-21 03:47:00,58.8,53.1,30.70,SW,225,0.0,1.0,81,0.00,,,0.00,meteohub,2013-07-21 09:47:00,
2013-07-21 03:52:00,58.5,53.1,30.70,East,90,1.0,1.0,82,0.00,,,0.00,meteohub,2013-07-21 09:52:00,
2013-07-21 03:57:00,58.3,53.1,30.70,East,90,0.0,1.0,83,0.00,,,0.00,meteohub,2013-07-21 09:57:00,
2013-07-21 04:02:00,58.1,52.9,30.70,SW,225,2.0,2.0,83,0.00,,,0.00,meteohub,2013-07-21 10:02:00,
2013-07-21 04:07:00,58.1,52.9,30.70,SW,225,2.0,2.0,83,0.00,,,0.00,meteohub,2013-07-21 10:07:00,
2013-07-21 04:12:00,57.4,52.5,30.70,South,180,0.0,2.0,84,0.00,,,0.00,meteohub,2013-07-21 10:12:00,
2013-07-21 04:17:00,57.0,52.5,30.71,West,270,0.0,2.0,85,0.00,,,0.00,meteohub,2013-07-21 10:17:00,
2013-07-21 04:22:00,56.8,52.7,30.71,West,270,0.0,2.0,86,0.00,,,0.00,meteohub,2013-07-21 10:22:00,
2013-07-21 04:27:00,56.7,52.5,30.71,SW,225,1.0,2.0,86,0.00,,,0.00,meteohub,2013-07-21 10:27:00,
2013-07-21 04:32:00,56.7,52.5,30.71,SW,225,1.0,2.0,86,0.00,,,0.00,meteohub,2013-07-21 10:32:00,
2013-07-21 04:37:00,56.5,52.3,30.71,West,270,2.0,2.0,86,0.00,,,0.00,meteohub,2013-07-21 10:37:00,
2013-07-21 04:42:00,56.5,52.3,30.71,West,270,0.0,2.0,86,0.00,,,0.00,meteohub,2013-07-21 10:42:00,
2013-07-21 04:47:00,56.5,52.3,30.71,NE,45,0.0,2.0,86,0.00,,,0.00,meteohub,2013-07-21 10:47:00,
2013-07-21 04:52:00,56.1,52.0,30.70,SW,225,0.0,2.0,86,0.00,,,0.00,meteohub,2013-07-21 10:52:00,
2013-07-21 04:58:00,55.8,51.6,30.70,West,270,2.0,2.0,86,0.00,,,0.00,meteohub,2013-07-21 10:58:00,
2013-07-21 05:03:00,55.4,51.6,30.70,West,270,0.0,2.0,87,0.00,,,0.00,meteohub,2013-07-21 11:03:00,
2013-07-21 05:08:00,55.2,51.4,30.70,South,180,0.0,2.0,87,0.00,,,0.00,meteohub,2013-07-21 11:08:00,
2013-07-21 05:13:00,55.0,51.3,30.70,SW,225,0.0,2.0,87,0.00,,,0.00,meteohub,2013-07-21 11:13:00,
2013-07-21 05:18:00,54.9,51.4,30.69,SW,225,0.0,1.0,88,0.00,,,0.00,meteohub,2013-07-21 11:18:00,
2013-07-21 05:23:00,54.7,51.3,30.69,SW,225,0.0,2.0,88,0.00,,,0.00,meteohub,2013-07-21 11:23:00,
2013-07-21 05:28:00,54.5,51.1,30.69,SW,225,0.0,2.0,88,0.00,,,0.00,meteohub,2013-07-21 11:28:00,
2013-07-21 05:33:00,54.3,51.1,30.69,SW,225,0.0,2.0,89,0.00,,,0.00,meteohub,2013-07-21 11:33:00,
2013-07-21 05:38:00,54.1,50.9,30.69,SW,225,0.0,0.0,89,0.00,,,0.00,meteohub,2013-07-21 11:38:00,
2013-07-21 05:43:00,54.0,50.7,30.69,SW,225,0.0,0.0,89,0.00,,,0.00,meteohub,2013-07-21 11:43:00,
2013-07-21 05:49:00,53.8,50.5,30.69,SW,225,0.0,0.0,89,0.00,,,0.00,meteohub,2013-07-21 11:49:00,
2013-07-21 05:54:00,53.6,50.4,30.69,SW,225,0.0,0.0,89,0.00,,,0.00,meteohub,2013-07-21 11:54:00,
2013-07-21 05:59:00,53.6,50.7,30.70,SW,225,0.0,1.0,90,0.00,,,0.00,meteohub,2013-07-21 11:59:00,
2013-07-21 06:04:00,53.4,50.9,30.69,SW,225,0.0,1.0,91,0.00,,,0.00,meteohub,2013-07-21 12:04:00,
2013-07-21 06:09:00,53.2,50.7,30.69,SW,225,1.0,1.0,91,0.00,,,0.00,meteohub,2013-07-21 12:09:00,
2013-07-21 06:14:00,53.4,51.1,30.69,SW,225,0.0,0.0,92,0.00,,,0.00,meteohub,2013-07-21 12:14:00,
2013-07-21 06:19:00,53.4,51.1,30.70,West,270,0.0,2.0,92,0.00,,,0.00,meteohub,2013-07-21 12:19:00,
2013-07-21 06:24:00,53.6,51.1,30.69,South,180,0.0,2.0,91,0.00,,,0.00,meteohub,2013-07-21 12:24:00,
2013-07-21 06:29:00,53.8,51.3,30.69,SW,225,0.0,1.0,91,0.00,,,0.00,meteohub,2013-07-21 12:29:00,
2013-07-21 06:34:00,54.0,51.6,30.69,SW,225,2.0,2.0,92,0.00,,,0.00,meteohub,2013-07-21 12:34:00,
2013-07-21 06:39:00,54.1,51.8,30.69,SW,225,0.0,2.0,92,0.00,,,0.00,meteohub,2013-07-21 12:39:00,
2013-07-21 06:45:00,54.5,52.2,30.69,SW,225,0.0,2.0,92,0.00,,,0.00,meteohub,2013-07-21 12:45:00,
2013-07-21 06:50:00,54.5,52.2,30.69,SW,225,0.0,2.0,92,0.00,,,0.00,meteohub,2013-07-21 12:50:00,
2013-07-21 06:55:00,54.7,52.3,30.69,SW,225,0.0,2.0,92,0.00,,,0.00,meteohub,2013-07-21 12:55:00,
2013-07-21 07:00:00,54.9,52.5,30.69,SW,225,0.0,0.0,92,0.00,,,0.00,meteohub,2013-07-21 13:00:00,
2013-07-21 07:05:00,54.9,52.5,30.69,SW,225,0.0,0.0,92,0.00,,,0.00,meteohub,2013-07-21 13:05:00,
2013-07-21 07:10:00,55.0,52.7,30.69,SW,225,0.0,0.0,92,0.00,,,0.00,meteohub,2013-07-21 13:10:00,
2013-07-21 07:15:00,55.2,52.9,30.69,SW,225,0.0,0.0,92,0.00,,,0.00,meteohub,2013-07-21 13:15:00,
2013-07-21 07:20:00,55.4,53.1,30.69,SW,225,0.0,0.0,92,0.00,,,0.00,meteohub,2013-07-21 13:20:00,
2013-07-21 07:25:00,55.4,53.1,30.69,SW,225,0.0,0.0,92,0.00,,,0.00,meteohub,2013-07-21 13:25:00,
2013-07-21 07:30:00,55.6,53.2,30.69,SW,225,0.0,0.0,92,0.00,,,0.00,meteohub,2013-07-21 13:30:00,
2013-07-21 07:35:00,55.8,53.4,30.69,East,90,2.0,0.0,92,0.00,,,0.00,meteohub,2013-07-21 13:35:00,
2013-07-21 07:41:00,56.5,54.1,30.69,SE,135,4.0,4.0,92,0.00,,,0.00,meteohub,2013-07-21 13:41:00,
2013-07-21 07:46:00,57.6,55.0,30.69,SE,135,2.0,4.0,91,0.00,,,0.00,meteohub,2013-07-21 13:46:00,
2013-07-21 07:51:00,59.5,56.3,30.69,SE,135,0.0,4.0,89,0.00,,,0.00,meteohub,2013-07-21 13:51:00,
2013-07-21 07:56:00,61.2,57.2,30.69,SE,135,2.0,4.0,87,0.00,,,0.00,meteohub,2013-07-21 13:56:00,
2013-07-21 08:01:00,62.6,57.4,30.69,SE,135,0.0,3.0,83,0.00,,,0.00,meteohub,2013-07-21 14:01:00,
2013-07-21 08:06:00,62.6,57.4,30.69,SE,135,0.0,3.0,83,0.00,,,0.00,meteohub,2013-07-21 14:06:00,
2013-07-21 08:11:00,65.7,58.3,30.69,East,90,2.0,3.0,77,0.00,,,0.00,meteohub,2013-07-21 14:11:00,
2013-07-21 08:16:00,66.4,57.9,30.69,West,270,0.0,3.0,74,0.00,,,0.00,meteohub,2013-07-21 14:16:00,
2013-07-21 08:21:00,67.3,57.6,30.69,SE,135,2.0,3.0,71,0.00,,,0.00,meteohub,2013-07-21 14:21:00,
2013-07-21 08:26:00,67.8,58.5,30.69,SE,135,2.0,3.0,72,0.00,,,0.00,meteohub,2013-07-21 14:26:00,
2013-07-21 08:31:00,68.4,57.4,30.69,East,90,4.0,4.0,68,0.00,,,0.00,meteohub,2013-07-21 14:31:00,
2013-07-21 08:37:00,68.7,57.4,30.69,South,180,2.0,6.0,67,0.00,,,0.00,meteohub,2013-07-21 14:37:00,
2013-07-21 08:42:00,70.0,57.7,30.69,South,180,2.0,6.0,65,0.00,,,0.00,meteohub,2013-07-21 14:42:00,
2013-07-21 08:47:00,71.1,57.7,30.69,East,90,4.0,6.0,63,0.00,,,0.00,meteohub,2013-07-21 14:47:00,
2013-07-21 08:52:00,71.6,57.4,30.69,East,90,2.0,5.0,61,0.00,,,0.00,meteohub,2013-07-21 14:52:00,
2013-07-21 08:57:00,72.3,57.7,30.69,East,90,4.0,5.0,60,0.00,,,0.00,meteohub,2013-07-21 14:57:00,
2013-07-21 09:02:00,72.7,56.5,30.69,NW,315,3.0,5.0,57,0.00,,,0.00,meteohub,2013-07-21 15:02:00,
2013-07-21 09:07:00,73.2,56.7,30.68,East,90,3.0,5.0,56,0.00,,,0.00,meteohub,2013-07-21 15:07:00,
2013-07-21 09:12:00,73.9,56.8,30.68,NE,45,6.0,6.0,55,0.00,,,0.00,meteohub,2013-07-21 15:12:00,
2013-07-21 09:17:00,74.1,56.5,30.68,NE,45,4.0,8.0,54,0.00,,,0.00,meteohub,2013-07-21 15:17:00,
2013-07-21 09:22:00,74.8,57.0,30.68,East,90,4.0,8.0,54,0.00,,,0.00,meteohub,2013-07-21 15:22:00,
2013-07-21 09:27:00,75.6,56.7,30.68,NE,45,4.0,6.0,52,0.00,,,0.00,meteohub,2013-07-21 15:27:00,
2013-07-21 09:32:00,76.1,56.7,30.68,East,90,8.0,8.0,51,0.00,,,0.00,meteohub,2013-07-21 15:32:00,
2013-07-21 09:37:00,76.6,56.7,30.68,NE,45,4.0,8.0,50,0.00,,,0.00,meteohub,2013-07-21 15:37:00,
2013-07-21 09:42:00,76.3,55.2,30.68,NE,45,4.0,8.0,48,0.00,,,0.00,meteohub,2013-07-21 15:42:00,
2013-07-21 09:47:00,76.8,56.3,30.68,North,0,6.0,8.0,49,0.00,,,0.00,meteohub,2013-07-21 15:47:00,
2013-07-21 09:52:00,77.2,55.4,30.67,East,90,4.0,8.0,47,0.00,,,0.00,meteohub,2013-07-21 15:52:00,
2013-07-21 09:57:00,77.7,55.2,30.67,SW,225,3.0,7.0,46,0.00,,,0.00,meteohub,2013-07-21 15:57:00,
2013-07-21 10:02:00,78.3,55.8,30.67,North,0,5.0,7.0,46,0.00,,,0.00,meteohub,2013-07-21 16:02:00,
2013-07-21 10:07:00,78.3,55.8,30.67,North,0,5.0,6.0,46,0.00,,,0.00,meteohub,2013-07-21 16:07:00,
2013-07-21 10:12:00,79.7,56.5,30.67,SW,225,2.0,6.0,45,0.00,,,0.00,meteohub,2013-07-21 16:12:00,
2013-07-21 10:17:00,80.6,57.9,30.66,South,180,2.0,5.0,46,0.00,,,0.00,meteohub,2013-07-21 16:17:00,
2013-07-21 10:22:00,81.3,57.4,30.66,South,180,2.0,5.0,44,0.00,,,0.00,meteohub,2013-07-21 16:22:00,
2013-07-21 10:27:00,81.9,56.5,30.66,East,90,2.0,4.0,42,0.00,,,0.00,meteohub,2013-07-21 16:27:00,
2013-07-21 10:32:00,82.2,57.6,30.66,North,0,6.0,6.0,43,0.00,,,0.00,meteohub,2013-07-21 16:32:00,
2013-07-21 10:37:00,82.0,55.9,30.66,East,90,4.0,6.0,41,0.00,,,0.00,meteohub,2013-07-21 16:37:00,
2013-07-21 10:42:00,82.2,56.8,30.66,SE,135,2.0,6.0,42,0.00,,,0.00,meteohub,2013-07-21 16:42:00,
2013-07-21 10:47:00,82.9,56.1,30.66,South,180,1.0,6.0,40,0.00,,,0.00,meteohub,2013-07-21 16:47:00,
2013-07-21 10:52:00,83.7,56.1,30.66,South,180,3.0,4.0,39,0.00,,,0.00,meteohub,2013-07-21 16:52:00,
2013-07-21 10:57:00,83.7,57.4,30.66,SE,135,2.0,4.0,41,0.00,,,0.00,meteohub,2013-07-21 16:57:00,
2013-07-21 11:02:00,83.7,54.7,30.65,North,0,4.0,4.0,37,0.00,,,0.00,meteohub,2013-07-21 17:02:00,
2013-07-21 11:07:00,83.5,54.5,30.66,NE,45,5.0,5.0,37,0.00,,,0.00,meteohub,2013-07-21 17:07:00,
2013-07-21 11:12:00,83.5,55.9,30.65,NE,45,3.0,5.0,39,0.00,,,0.00,meteohub,2013-07-21 17:12:00,
2013-07-21 11:17:00,84.0,55.8,30.65,East,90,4.0,5.0,38,0.00,,,0.00,meteohub,2013-07-21 17:17:00,
2013-07-21 11:22:00,84.0,54.1,30.65,East,90,3.0,6.0,36,0.00,,,0.00,meteohub,2013-07-21 17:22:00,
2013-07-21 11:27:00,84.6,53.1,30.65,East,90,2.0,6.0,34,0.00,,,0.00,meteohub,2013-07-21 17:27:00,
2013-07-21 11:32:00,85.6,57.9,30.65,South,180,1.0,6.0,39,0.00,,,0.00,meteohub,2013-07-21 17:32:00,
2013-07-21 11:37:00,86.5,54.0,30.65,South,180,2.0,3.0,33,0.00,,,0.00,meteohub,2013-07-21 17:37:00,
2013-07-21 11:42:00,87.3,53.8,30.64,SW,225,2.0,3.0,32,0.00,,,0.00,meteohub,2013-07-21 17:42:00,
2013-07-21 11:47:00,88.2,50.9,30.64,West,270,2.0,3.0,28,0.00,,,0.00,meteohub,2013-07-21 17:47:00,
2013-07-21 11:52:00,88.3,46.9,30.64,NE,45,5.0,5.0,24,0.00,,,0.00,meteohub,2013-07-21 17:52:00,
2013-07-21 11:57:00,88.3,45.9,30.64,NE,45,4.0,6.0,23,0.00,,,0.00,meteohub,2013-07-21 17:57:00,
2013-07-21 12:02:00,88.3,45.9,30.64,North,0,2.0,6.0,23,0.00,,,0.00,meteohub,2013-07-21 18:02:00,
2013-07-21 12:07:00,88.3,45.9,30.64,North,0,2.0,6.0,23,0.00,,,0.00,meteohub,2013-07-21 18:07:00,
2013-07-21 12:12:00,88.7,45.0,30.64,NW,315,4.0,6.0,22,0.00,,,0.00,meteohub,2013-07-21 18:12:00,
2013-07-21 12:17:00,88.9,39.9,30.64,North,0,4.0,7.0,18,0.00,,,0.00,meteohub,2013-07-21 18:17:00,
2013-07-21 12:22:00,88.9,39.9,30.64,North,0,8.0,8.0,18,0.00,,,0.00,meteohub,2013-07-21 18:22:00,
2013-07-21 12:27:00,89.2,38.7,30.64,NE,45,5.0,8.0,17,0.00,,,0.00,meteohub,2013-07-21 18:27:00,
2013-07-21 12:32:00,89.2,40.3,30.64,North,0,5.0,8.0,18,0.00,,,0.00,meteohub,2013-07-21 18:32:00,
2013-07-21 12:37:00,89.4,35.6,30.64,NE,45,4.0,8.0,15,0.00,,,0.00,meteohub,2013-07-21 18:37:00,
2013-07-21 12:42:00,89.8,37.6,30.63,NE,45,7.0,10.0,16,0.00,,,0.00,meteohub,2013-07-21 18:42:00,
2013-07-21 12:47:00,89.2,33.8,30.63,NE,45,6.0,10.0,14,0.00,,,0.00,meteohub,2013-07-21 18:47:00,
2013-07-21 12:52:00,89.4,40.3,30.63,NE,45,8.0,10.0,18,0.00,,,0.00,meteohub,2013-07-21 18:52:00,
2013-07-21 12:57:00,89.8,36.0,30.63,NE,45,8.0,9.0,15,0.00,,,0.00,meteohub,2013-07-21 18:57:00,
2013-07-21 13:02:00,89.6,35.8,30.63,NE,45,7.0,10.0,15,0.00,,,0.00,meteohub,2013-07-21 19:02:00,
2013-07-21 13:07:00,89.8,34.2,30.62,East,90,5.0,10.0,14,0.00,,,0.00,meteohub,2013-07-21 19:07:00,
2013-07-21 13:12:00,90.0,36.1,30.63,South,180,8.0,10.0,15,0.00,,,0.00,meteohub,2013-07-21 19:12:00,
2013-07-21 13:17:00,90.3,34.7,30.62,SE,135,3.0,8.0,14,0.00,,,0.00,meteohub,2013-07-21 19:17:00,
2013-07-21 13:22:00,90.9,38.5,30.62,SSE,158,4.0,8.0,16,0.00,,,0.00,meteohub,2013-07-21 19:22:00,
2013-07-21 13:27:00,91.2,41.7,30.61,South,180,8.0,8.0,18,0.00,,,0.00,meteohub,2013-07-21 19:27:00,
2013-07-21 13:32:00,91.6,43.5,30.61,SW,225,2.0,8.0,19,0.00,,,0.00,meteohub,2013-07-21 19:32:00,
2013-07-21 13:37:00,91.8,37.6,30.61,NE,45,5.0,8.0,15,0.00,,,0.00,meteohub,2013-07-21 19:37:00,
2013-07-21 13:42:00,91.9,37.8,30.61,NE,45,4.0,9.0,15,0.00,,,0.00,meteohub,2013-07-21 19:42:00,
2013-07-21 13:47:00,91.6,37.4,30.61,NE,45,6.0,9.0,15,0.00,,,0.00,meteohub,2013-07-21 19:47:00,
2013-07-21 13:52:00,91.4,37.2,30.61,North,0,4.0,9.0,15,0.00,,,0.00,meteohub,2013-07-21 19:52:00,
2013-07-21 13:57:00,91.9,37.8,30.60,SE,135,4.0,8.0,15,0.00,,,0.00,meteohub,2013-07-21 19:57:00,
2013-07-21 14:02:00,91.4,41.9,30.61,South,180,2.0,8.0,18,0.00,,,0.00,meteohub,2013-07-21 20:02:00,
2013-07-21 14:07:00,91.4,41.9,30.61,South,180,2.0,8.0,18,0.00,,,0.00,meteohub,2013-07-21 20:07:00,
2013-07-21 14:12:00,88.3,37.9,30.61,East,90,6.0,8.0,17,0.00,,,0.00,meteohub,2013-07-21 20:12:00,
2013-07-21 14:17:00,87.4,38.7,30.61,NE,45,5.0,8.0,18,0.00,,,0.00,meteohub,2013-07-21 20:17:00,
2013-07-21 14:22:00,87.1,41.2,30.61,SW,225,2.0,8.0,20,0.00,,,0.00,meteohub,2013-07-21 20:22:00,
2013-07-21 14:27:00,86.5,46.6,30.61,South,180,2.0,8.0,25,0.00,,,0.00,meteohub,2013-07-21 20:27:00,
2013-07-21 14:32:00,85.1,44.2,30.61,SE,135,8.0,8.0,24,0.00,,,0.00,meteohub,2013-07-21 20:32:00,
2013-07-21 14:37:00,84.2,40.1,30.61,East,90,4.0,8.0,21,0.00,,,0.00,meteohub,2013-07-21 20:37:00,
2013-07-21 14:42:00,83.7,38.3,30.61,NE,45,5.0,8.0,20,0.00,,,0.00,meteohub,2013-07-21 20:42:00,
2013-07-21 14:47:00,83.3,36.7,30.61,East,90,7.0,9.0,19,0.00,,,0.00,meteohub,2013-07-21 20:47:00,
2013-07-21 14:52:00,82.4,38.5,30.62,NE,45,5.0,11.0,21,0.00,,,0.00,meteohub,2013-07-21 20:52:00,
2013-07-21 14:57:00,81.9,35.6,30.61,SE,135,2.0,11.0,19,0.00,,,0.00,meteohub,2013-07-21 20:57:00,
2013-07-21 15:02:00,81.7,35.4,30.61,WSW,248,3.0,11.0,19,0.00,,,0.00,meteohub,2013-07-21 21:02:00,
2013-07-21 15:07:00,81.9,34.2,30.61,SW,225,4.0,7.0,18,0.00,,,0.00,meteohub,2013-07-21 21:07:00,
2013-07-21 15:12:00,82.2,38.5,30.62,SE,135,2.0,7.0,21,0.00,,,0.00,meteohub,2013-07-21 21:12:00,
2013-07-21 15:17:00,82.6,41.0,30.62,East,90,6.0,7.0,23,0.00,,,0.00,meteohub,2013-07-21 21:17:00,
2013-07-21 15:22:00,82.8,43.3,30.62,SW,225,11.0,11.0,25,0.00,,,0.00,meteohub,2013-07-21 21:22:00,
2013-07-21 15:27:00,83.1,43.7,30.62,North,0,4.0,11.0,25,0.00,,,0.00,meteohub,2013-07-21 21:27:00,
2013-07-21 15:32:00,82.9,43.5,30.62,SW,225,14.0,14.0,25,0.00,,,0.00,meteohub,2013-07-21 21:32:00,
2013-07-21 15:37:00,82.8,43.3,30.62,SE,135,6.0,14.0,25,0.00,,,0.00,meteohub,2013-07-21 21:37:00,
2013-07-21 15:42:00,82.6,43.2,30.62,North,0,4.0,14.0,25,0.00,,,0.00,meteohub,2013-07-21 21:42:00,
2013-07-21 15:47:00,82.4,43.0,30.61,SE,135,7.0,14.0,25,0.00,,,0.00,meteohub,2013-07-21 21:47:00,
2013-07-21 15:52:00,82.6,43.2,30.61,SE,135,4.0,11.0,25,0.00,,,0.00,meteohub,2013-07-21 21:52:00,
2013-07-21 15:57:00,82.4,44.1,30.61,West,270,5.0,11.0,26,0.00,,,0.00,meteohub,2013-07-21 21:57:00,
2013-07-21 16:02:00,82.2,40.8,30.61,South,180,3.0,9.0,23,0.00,,,0.00,meteohub,2013-07-21 22:02:00,
2013-07-21 16:07:00,82.2,40.8,30.61,South,180,3.0,6.0,23,0.00,,,0.00,meteohub,2013-07-21 22:07:00,
2013-07-21 16:12:00,82.2,41.9,30.61,SW,225,3.0,5.0,24,0.00,,,0.00,meteohub,2013-07-21 22:12:00,
2013-07-21 16:17:00,83.1,45.7,30.61,SW,225,2.0,4.0,27,0.00,,,0.00,meteohub,2013-07-21 22:17:00,
2013-07-21 16:22:00,83.8,46.2,30.61,South,180,3.0,4.0,27,0.00,,,0.00,meteohub,2013-07-21 22:22:00,
2013-07-21 16:27:00,84.6,45.0,30.61,SW,225,2.0,4.0,25,0.00,,,0.00,meteohub,2013-07-21 22:27:00,
2013-07-21 16:32:00,84.4,44.8,30.61,SW,225,2.0,4.0,25,0.00,,,0.00,meteohub,2013-07-21 22:32:00,
2013-07-21 16:37:00,84.2,46.6,30.60,SW,225,0.0,4.0,27,0.00,,,0.00,meteohub,2013-07-21 22:37:00,
2013-07-21 16:42:00,83.8,52.5,30.60,SW,225,0.0,3.0,34,0.00,,,0.00,meteohub,2013-07-21 22:42:00,
2013-07-21 16:47:00,83.1,48.6,30.60,SW,225,3.0,3.0,30,0.00,,,0.00,meteohub,2013-07-21 22:47:00,
2013-07-21 16:52:00,82.9,44.6,30.60,South,180,4.0,4.0,26,0.00,,,0.00,meteohub,2013-07-21 22:52:00,
2013-07-21 16:57:00,83.3,44.8,30.60,West,270,3.0,4.0,26,0.00,,,0.00,meteohub,2013-07-21 22:57:00,
2013-07-21 17:02:00,83.5,46.0,30.60,South,180,2.0,4.0,27,0.00,,,0.00,meteohub,2013-07-21 23:02:00,
2013-07-21 17:07:00,83.5,46.9,30.59,West,270,2.0,4.0,28,0.00,,,0.00,meteohub,2013-07-21 23:07:00,
2013-07-21 17:12:00,83.5,46.9,30.59,SW,225,1.0,3.0,28,0.00,,,0.00,meteohub,2013-07-21 23:12:00,
2013-07-21 17:17:00,83.3,52.0,30.59,SW,225,0.0,3.0,34,0.00,,,0.00,meteohub,2013-07-21 23:17:00,
2013-07-21 17:22:00,83.5,51.4,30.59,SW,225,2.0,2.0,33,0.00,,,0.00,meteohub,2013-07-21 23:22:00,
2013-07-21 17:27:00,83.1,49.3,30.59,SW,225,0.0,2.0,31,0.00,,,0.00,meteohub,2013-07-21 23:27:00,
2013-07-21 17:32:00,82.9,53.2,30.58,South,180,0.0,2.0,36,0.00,,,0.00,meteohub,2013-07-21 23:32:00,
2013-07-21 17:37:00,82.4,52.0,30.59,SW,225,2.0,2.0,35,0.00,,,0.00,meteohub,2013-07-21 23:37:00,
2013-07-21 17:42:00,82.0,48.4,30.59,SW,225,1.0,2.0,31,0.00,,,0.00,meteohub,2013-07-21 23:42:00,
2013-07-21 17:47:00,81.9,50.0,30.59,SW,225,0.0,2.0,33,0.00,,,0.00,meteohub,2013-07-21 23:47:00,
2013-07-21 17:52:00,81.9,50.0,30.59,SW,225,0.0,2.0,33,0.00,,,0.00,meteohub,2013-07-21 23:52:00,
2013-07-21 17:57:00,81.5,51.3,30.59,SW,225,2.0,2.0,35,0.00,,,0.00,meteohub,2013-07-21 23:57:00,
2013-07-21 18:02:00,81.1,45.0,30.58,NE,45,5.0,5.0,28,0.00,,,0.00,meteohub,2013-07-22 00:02:00,
2013-07-21 18:07:00,81.1,45.0,30.59,NE,45,5.0,5.0,28,0.00,,,0.00,meteohub,2013-07-22 00:07:00,
2013-07-21 18:12:00,83.3,43.9,30.59,West,270,4.0,5.0,25,0.00,,,0.00,meteohub,2013-07-22 00:12:00,
2013-07-21 18:17:00,83.8,44.2,30.59,SW,225,2.0,5.0,25,0.00,,,0.00,meteohub,2013-07-22 00:17:00,
2013-07-21 18:22:00,83.8,39.7,30.59,West,270,3.0,5.0,21,0.00,,,0.00,meteohub,2013-07-22 00:22:00,
2013-07-21 18:27:00,83.8,44.2,30.59,SW,225,2.0,5.0,25,0.00,,,0.00,meteohub,2013-07-22 00:27:00,
2013-07-21 18:32:00,83.7,45.1,30.59,West,270,3.0,5.0,26,0.00,,,0.00,meteohub,2013-07-22 00:32:00,
2013-07-21 18:37:00,83.3,45.9,30.59,West,270,4.0,5.0,27,0.00,,,0.00,meteohub,2013-07-22 00:37:00,
2013-07-21 18:42:00,82.8,45.3,30.59,SW,225,4.0,5.0,27,0.00,,,0.00,meteohub,2013-07-22 00:42:00,
2013-07-21 18:47:00,82.6,46.2,30.60,WNW,293,5.0,5.0,28,0.00,,,0.00,meteohub,2013-07-22 00:47:00,
2013-07-21 18:52:00,82.2,43.9,30.60,SW,225,3.0,5.0,26,0.00,,,0.00,meteohub,2013-07-22 00:52:00,
2013-07-21 18:57:00,81.9,42.6,30.59,WSW,248,3.0,5.0,25,0.00,,,0.00,meteohub,2013-07-22 00:57:00,
2013-07-21 19:02:00,81.9,44.6,30.60,West,270,3.0,7.0,27,0.00,,,0.00,meteohub,2013-07-22 01:02:00,
2013-07-21 19:07:00,81.5,43.3,30.60,SW,225,4.0,7.0,26,0.00,,,0.00,meteohub,2013-07-22 01:07:00,
2013-07-21 19:12:00,81.3,45.1,30.60,West,270,2.0,5.0,28,0.00,,,0.00,meteohub,2013-07-22 01:12:00,
2013-07-21 19:17:00,81.1,41.9,30.61,West,270,2.0,5.0,25,0.00,,,0.00,meteohub,2013-07-22 01:17:00,
2013-07-21 19:22:00,81.1,43.0,30.61,SW,225,3.0,4.0,26,0.00,,,0.00,meteohub,2013-07-22 01:22:00,
2013-07-21 19:27:00,81.1,41.9,30.61,SW,225,4.0,4.0,25,0.00,,,0.00,meteohub,2013-07-22 01:27:00,
2013-07-21 19:32:00,81.1,41.9,30.61,SW,225,4.0,4.0,25,0.00,,,0.00,meteohub,2013-07-22 01:32:00,
2013-07-21 19:37:00,80.8,42.6,30.61,West,270,3.0,5.0,26,0.00,,,0.00,meteohub,2013-07-22 01:37:00,
2013-07-21 19:42:00,80.2,45.1,30.61,West,270,2.0,5.0,29,0.00,,,0.00,meteohub,2013-07-22 01:42:00,
2013-07-21 19:47:00,79.7,45.5,30.61,SW,225,2.0,5.0,30,0.00,,,0.00,meteohub,2013-07-22 01:47:00,
2013-07-21 19:52:00,79.2,46.8,30.61,West,270,2.0,4.0,32,0.00,,,0.00,meteohub,2013-07-22 01:52:00,
2013-07-21 19:57:00,78.8,46.4,30.62,West,270,2.0,4.0,32,0.00,,,0.00,meteohub,2013-07-22 01:57:00,
2013-07-21 20:02:00,78.4,46.9,30.62,SW,225,0.0,2.0,33,0.00,,,0.00,meteohub,2013-07-22 02:02:00,
2013-07-21 20:07:00,78.4,46.9,30.63,SW,225,0.0,2.0,33,0.00,,,0.00,meteohub,2013-07-22 02:07:00,
2013-07-21 20:12:00,76.6,48.4,30.63,South,180,1.0,2.0,37,0.00,,,0.00,meteohub,2013-07-22 02:12:00,
2013-07-21 20:17:00,75.4,48.0,30.64,SE,135,1.0,2.0,38,0.00,,,0.00,meteohub,2013-07-22 02:17:00,
2013-07-21 20:22:00,74.7,49.5,30.64,SW,225,0.0,2.0,41,0.00,,,0.00,meteohub,2013-07-22 02:22:00,
2013-07-21 20:27:00,74.3,47.7,30.65,West,270,2.0,2.0,39,0.00,,,0.00,meteohub,2013-07-22 02:27:00,
2013-07-21 20:32:00,73.9,49.5,30.65,SW,225,0.0,2.0,42,0.00,,,0.00,meteohub,2013-07-22 02:32:00,
2013-07-21 20:38:00,73.0,48.6,30.65,South,180,2.0,2.0,42,0.00,,,0.00,meteohub,2013-07-22 02:38:00,
2013-07-21 20:43:00,72.0,48.9,30.65,NW,315,2.0,2.0,44,0.00,,,0.00,meteohub,2013-07-22 02:43:00,
2013-07-21 20:48:00,71.1,48.6,30.65,West,270,2.0,2.0,45,0.00,,,0.00,meteohub,2013-07-22 02:48:00,
2013-07-21 20:53:00,70.3,48.6,30.65,West,270,2.0,3.0,46,0.00,,,0.00,meteohub,2013-07-22 02:53:00,
2013-07-21 20:58:00,70.2,48.4,30.65,North,0,0.0,3.0,46,0.00,,,0.00,meteohub,2013-07-22 02:58:00,
2013-07-21 21:04:00,69.6,49.1,30.65,SW,225,0.0,3.0,48,0.00,,,0.00,meteohub,2013-07-22 03:04:00,
2013-07-21 21:09:00,69.1,48.6,30.65,SW,225,1.0,3.0,48,0.00,,,0.00,meteohub,2013-07-22 03:09:00,
2013-07-21 21:14:00,68.7,48.2,30.66,West,270,1.0,3.0,48,0.00,,,0.00,meteohub,2013-07-22 03:14:00,
2013-07-21 21:19:00,68.5,48.6,30.66,West,270,2.0,2.0,49,0.00,,,0.00,meteohub,2013-07-22 03:19:00,
2013-07-21 21:24:00,68.7,48.2,30.66,SW,225,2.0,2.0,48,0.00,,,0.00,meteohub,2013-07-22 03:24:00,
2013-07-21 21:29:00,68.5,48.0,30.66,SW,225,0.0,2.0,48,0.00,,,0.00,meteohub,2013-07-22 03:29:00,
2013-07-21 21:34:00,67.8,48.6,30.66,SW,225,2.0,2.0,50,0.00,,,0.00,meteohub,2013-07-22 03:34:00,
2013-07-21 21:39:00,67.1,49.5,30.67,SW,225,1.0,2.0,53,0.00,,,0.00,meteohub,2013-07-22 03:39:00,
2013-07-21 21:44:00,66.0,49.5,30.66,West,270,1.0,2.0,55,0.00,,,0.00,meteohub,2013-07-22 03:44:00,
2013-07-21 21:49:00,65.5,48.9,30.67,SW,225,2.0,2.0,55,0.00,,,0.00,meteohub,2013-07-22 03:49:00,
2013-07-21 21:55:00,65.3,48.7,30.67,SW,225,0.0,2.0,55,0.00,,,0.00,meteohub,2013-07-22 03:55:00,
2013-07-21 22:00:00,64.8,48.7,30.67,SW,225,0.0,2.0,56,0.00,,,0.00,meteohub,2013-07-22 04:00:00,
2013-07-21 22:01:00,64.8,48.7,30.67,SW,225,0.0,2.0,56,0.00,,,0.00,meteohub,2013-07-22 04:01:00,
2013-07-21 22:02:00,64.8,48.7,30.67,SW,225,0.0,2.0,56,0.00,,,0.00,meteohub,2013-07-22 04:02:00,
2013-07-21 22:03:00,64.8,48.7,30.67,SW,225,0.0,2.0,56,0.00,,,0.00,meteohub,2013-07-22 04:03:00,
2013-07-21 22:05:00,64.8,48.7,30.67,SW,225,0.0,2.0,56,0.00,,,0.00,meteohub,2013-07-22 04:05:00,
2013-07-21 22:10:00,63.5,48.9,30.68,SW,225,1.0,2.0,59,0.00,,,0.00,meteohub,2013-07-22 04:10:00,
2013-07-21 22:15:00,63.3,48.7,30.68,SW,225,2.0,2.0,59,0.00,,,0.00,meteohub,2013-07-22 04:15:00,
2013-07-21 22:20:00,63.5,48.4,30.68,NW,315,0.0,2.0,58,0.00,,,0.00,meteohub,2013-07-22 04:20:00,
2013-07-21 22:25:00,63.7,48.6,30.68,SW,225,0.0,2.0,58,0.00,,,0.00,meteohub,2013-07-22 04:25:00,
2013-07-21 22:30:00,63.7,49.5,30.68,NE,45,1.0,2.0,60,0.00,,,0.00,meteohub,2013-07-22 04:30:00,
2013-07-21 22:36:00,63.5,49.8,30.68,West,270,1.0,2.0,61,0.00,,,0.00,meteohub,2013-07-22 04:36:00,
2013-07-21 22:41:00,63.1,49.5,30.68,SW,225,0.0,2.0,61,0.00,,,0.00,meteohub,2013-07-22 04:41:00,
2013-07-21 22:46:00,63.0,49.3,30.68,SW,225,0.0,1.0,61,0.00,,,0.00,meteohub,2013-07-22 04:46:00,
2013-07-21 22:51:00,62.4,49.6,30.68,SW,225,1.0,1.0,63,0.00,,,0.00,meteohub,2013-07-22 04:51:00,
2013-07-21 22:56:00,62.2,49.1,30.69,SW,225,0.0,1.0,62,0.00,,,0.00,meteohub,2013-07-22 04:56:00,
2013-07-21 23:01:00,62.4,48.7,30.68,SW,225,2.0,2.0,61,0.00,,,0.00,meteohub,2013-07-22 05:01:00,
2013-07-21 23:06:00,62.6,49.5,30.69,SW,225,1.0,2.0,62,0.00,,,0.00,meteohub,2013-07-22 05:06:00,
2013-07-21 23:11:00,62.2,49.1,30.69,West,270,2.0,2.0,62,0.00,,,0.00,meteohub,2013-07-22 05:11:00,
2013-07-21 23:16:00,62.4,49.6,30.69,SW,225,0.0,2.0,63,0.00,,,0.00,meteohub,2013-07-22 05:16:00,
2013-07-21 23:21:00,61.9,49.1,30.69,SW,225,1.0,2.0,63,0.00,,,0.00,meteohub,2013-07-22 05:21:00,
2013-07-21 23:26:00,61.3,49.1,30.69,SW,225,1.0,2.0,64,0.00,,,0.00,meteohub,2013-07-22 05:26:00,
2013-07-21 23:32:00,60.8,48.6,30.69,SW,225,1.0,2.0,64,0.00,,,0.00,meteohub,2013-07-22 05:32:00,
2013-07-21 23:37:00,60.4,48.6,30.69,NW,315,0.0,2.0,65,0.00,,,0.00,meteohub,2013-07-22 05:37:00,
2013-07-21 23:42:00,60.4,48.6,30.69,NE,45,1.0,2.0,65,0.00,,,0.00,meteohub,2013-07-22 05:42:00,
2013-07-21 23:47:00,60.3,48.9,30.69,SW,225,0.0,2.0,66,0.00,,,0.00,meteohub,2013-07-22 05:47:00,
2013-07-21 23:52:00,60.1,48.7,30.69,SW,225,0.0,2.0,66,0.00,,,0.00,meteohub,2013-07-22 05:52:00,
2013-07-21 23:57:00,59.9,48.0,30.69,West,270,2.0,2.0,65,0.00,,,0.00,meteohub,2013-07-22 05:57:00,